Flag for U.S.A. Weather past 2 weeks in Clarksville, Tennessee, U.S.A.

Now
50 °F

Fog.


Feels Like: 49 °F
Forecast: 48 / 66 °F
Wind: 3 mph from West

Location: Outlaw Field

Current Time: Oct 21, 2014 at 5:01:44 AM

Latest Report: Oct 21, 2014 at 3:52 AM


Visibility: 5 mi

Pressure: 30.00 "Hg

Humidity: 100%

Dew point: 50 °F

Location of ClarksvilleLocation

Historic Weather in Clarksville — Graph

°F

Clarksville temperature yesterday

Maximum temperature yesterday: 68 °F (at 1:52 PM)
Minimum temperature yesterday: 43 °F (at 5:58 AM)
Average temperature yesterday: 55 °F

Past Weeks' High & Low Weather Summary

 TemperatureHumidityPressure
High81 °F (Oct 8, 3:52 PM)100% (Oct 8, 6:52 AM)30.25 "Hg (Oct 8, 6:52 AM)
Low41 °F (Oct 19, 6:52 AM)29% (Oct 8, 2:01 PM)29.58 "Hg (Oct 14, 4:52 AM)
Average61 °F82%29.94 "Hg
* Reported Oct 6 3:52 AM — Oct 21 3:52 AM, Clarksville, Weather by CustomWeather, © 2014

Note: Actual official high and low records may vary slightly from our data, if they occured in-between our weather recording intervals... More about our weather records

Advertising

Clarksville weather history for previous 24 hours

 ConditionsComfort  
Time TempWeatherWind HumidityBarometerVisibility
3:52 AM
Oct 21
50 °FFog.3 mph100%30.00 "Hg5 mi
2:52 AM51 °FClear.No wind96%30.00 "Hg7 mi
1:52 AM54 °FClear.No wind93%30.00 "Hg10 mi
12:52 AM53 °FClear.6 mph93%30.00 "Hg10 mi
11:52 PM
Oct 20
57 °FPassing clouds.3 mph83%29.99 "Hg10 mi
10:52 PM58 °FPassing clouds.5 mph81%30.00 "Hg10 mi
9:52 PM57 °FPassing clouds.5 mph83%30.00 "Hg10 mi
8:52 PM57 °FClear.3 mph83%29.98 "Hg10 mi
7:52 PM60 °FClear.3 mph75%29.98 "Hg10 mi
6:52 PM61 °FClear.5 mph72%29.97 "Hg10 mi
5:52 PM65 °FSunny.7 mph63%29.96 "Hg10 mi
4:52 PM67 °FSunny.9 mph59%29.95 "Hg10 mi
3:52 PM68 °FSunny.12 mph55%29.96 "Hg10 mi
2:52 PM68 °FSunny.10 mph53%29.97 "Hg10 mi
1:52 PM68 °FPassing clouds.12 mph51%29.98 "Hg10 mi
12:52 PM64 °FPartly sunny.9 mph61%30.01 "Hg10 mi
11:52 AM61 °FOvercast.8 mph67%30.04 "Hg10 mi
10:52 AM58 °FBroken clouds.7 mph72%30.06 "Hg10 mi
9:52 AM55 °FOvercast.7 mph80%30.08 "Hg10 mi
8:52 AM53 °FSunny.6 mph86%30.08 "Hg10 mi
7:52 AM47 °FFog.No wind97%30.07 "Hg6 mi
6:52 AM45 °FClear.3 mph100%30.06 "Hg9 mi
5:58 AM43 °FFog.5 mph97%30.07 "Hg3 mi
Weather by CustomWeather, © 2014

See weather overviewHow to use our weather pages